User: anonymous   Login
Location: Bonn
(50.7330°N, 7.1000°E)
Time: 16:34:09
(UTC+02:00)
Language:

Cosmos 1933 Rocket - Orbit

View from above orbital plane
View from above orbital plane
View from above satellite
View from above satellite

Ground track
Ground track

The orbit data is extracted from the following two-line orbital elements,

1 18959U 88020B   15141.73257222  .00000420  00000-0  48479-4 0  9994
2 18959 082.5387 258.4955 0018403 113.2240 359.6682 14.83131033468301
Epoch (UTC): 21 May 2015 17:34:54
Eccentricity: 0.0018403
inclination: 82.5387°
perigee height: 606 km
apogee height: 632 km
right ascension of ascending node: 258.4955°
argument of perigee: 113.2240°
revolutions per day: 14.83131033
mean anomaly at epoch: 359.6682°
orbit number at epoch: 46830

The dashed part of the orbit path shows where the satellite is in the earth's shadow,  

DLR